COSMOS 397 DEB *, 5531

Orbit data source: Space-Track

COSMOS 397 DEB *, 5531 is space debris in LEO originally from a launch on Thu, 25 Feb 1971 UTC launched from the Tyuratam Missile And Space Complex (TTMTR). Debris objects in space refer to the collection of defunct objects orbiting the Earth. Examples of debris include non-operational satellites, rocket bodies, and fragments generated from explosions, collisions, or faulty payload assembly.

Loading next visibility...
Identifier
5531, 1971-015BV
Orbit
LEO
Country
Flag of CISCIS
Related business
Manufacturer
Unknown
Mission
Spacecraft
Bus & Motor
Unknown
Mass
Unknown
Launch date (UTC)
1971-02-25 (55 years ago)
Launch vehicle
Unknown
Launch site
Tyuratam Missile And Space Complex (TTMTR)
Object type
Payload
Rocket body
Debris
Shape & HBR
Unknown shape, 0.1 m
Radar Cross Section
Small (<0.1 m²)

Expand to show TLE details & history
Last TLE update: 12 hours ago

TLE from 12 hours ago
0 COSMOS 397 DEB *
1 05531U 71015BV  25349.90970903  .00001423  00000-0  49295-3 0  9990
2 05531  66.6641 318.8491 0031126 182.1869 177.9103 14.38298254826557
Epoch: 2025-12-15T21:49Z
TLE epoch observation values (Epoch: 2025-12-15T21:49:58.860Z)
Latitude
0.00007°
Longitude
-93.44763°
Altitude
788.458 km
Speed
7.448 km/s
True Right ascension
21h 15m 23s
True Declination
0° 00' 00"
Sunlit
Object was in daylight at epoch
Visualization orbit readout
Latitude
Unknown
Longitude
Unknown
Altitude
Unknown
Speed
Unknown
Apparent Right ascension
Unknown
Apparent Declination
Unknown
Sunlit
N/A
Visualization observer readout
Local Sidereal Time
08:41:34
Azimuth
Unknown
Elevation
Unknown
Doppler factor
Unknown
Orbital elements
Apogee altitude
784.725 km
Perigee altitude
740.273 km
Semi-major axis
7,140.636 km
Eccentricity
0.00311
Inclination
66.6641°
RAAN
318.8491°
Arg. of periapsis
182.1869°
True anomaly
177.92326°
Mean anomaly
177.9103°
Eccentric anomaly
177.91678°
Mean motion
3.59698 °/min
Orbital period
100.08 mins
BSTAR
0.00049295
Loading maneuver chart data...
Computing Atmospheric mass density...
Loading historical data...
Loading historical data...
Loading historical data...
Loading historical data...
Loading historical data...
Loading historical data...
Loading historical data...

Documentation

Showing up to 5 results
|